DW7628 Weather Reports


Display with metric or nautical units.
time (UTC)temp
F
wind
direction
speed
MPH
gust
MPH
rain 1hr
in
rain 24hr
in
rain mn
in
humidity
%
barometer
mb
20260904141805 90 131 0.0 0.0 0.00 0.00 0.00 33 1013.2
20260904141305 90 26 0.0 0.0 0.00 0.00 0.00 33 1013.1
20260904140805 90 205 0.0 0.0 0.00 0.00 0.00 33 1013.1
20260904140305 90 136 0.0 0.0 0.00 0.00 0.00 33 1013.1
20260904135805 90 340 0.0 0.0 0.00 0.00 0.00 32 1013.1
20260904135306 90 138 0.0 0.0 0.00 0.00 0.00 32 1013.1
20260904134806 90 244 0.0 0.0 0.00 0.00 0.00 33 1013.1
20260904134305 90 104 0.0 0.0 0.00 0.00 0.00 32 1013.2
20260904133805 91 52 0.0 0.0 0.00 0.00 0.00 32 1013.3
20260904133305 91 2 0.0 0.0 0.00 0.00 0.00 31 1013.3
20260904132805 91 91 0.0 0.0 0.00 0.00 0.00 31 1013.4
20260904132306 92 124 0.0 0.0 0.00 0.00 0.00 30 1013.4
20260904131805 93 6 0.0 0.0 0.00 0.00 0.00 29 1013.4
20260904131306 93 84 0.0 0.0 0.00 0.00 0.00 29 1013.4
20260904130805 94 286 0.0 0.0 0.00 0.00 0.00 28 1013.4
20260904130305 94 82 0.0 0.0 0.00 0.00 0.00 28 1013.4
20260904125805 93 91 0.0 0.0 0.00 0.00 0.00 28 1013.4
20260904125306 93 91 0.0 0.0 0.00 0.00 0.00 28 1013.5
20260904124805 92 35 0.0 0.0 0.00 0.00 0.00 29 1013.6
20260904124305 92 137 0.0 0.0 0.00 0.00 0.00 28 1013.5
20260904123805 93 68 0.0 0.0 0.00 0.00 0.00 28 1013.7
20260904123305 93 102 0.0 0.0 0.00 0.00 0.00 28 1013.6
20260904122805 93 72 0.0 0.0 0.00 0.00 0.00 28 1013.7
20260904122306 93 159 0.0 0.0 0.00 0.00 0.00 28 1013.8
20260904121806 93 125 0.0 0.0 0.00 0.00 0.00 28 1013.9
20260904121305 92 100 0.0 0.0 0.00 0.00 0.00 29 1013.9
20260904120804 92 354 0.0 0.0 0.00 0.00 0.00 28 1013.9
20260904120305 92 192 0.0 0.0 0.00 0.00 0.00 28 1014.0
20260904115805 92 138 0.0 0.0 0.00 0.00 0.00 28 1014.0
20260904115306 92 70 0.0 0.0 0.00 0.00 0.00 29 1014.0
20260904114305 92 80 0.0 0.0 0.00 0.00 0.00 28 1014.1
20260904113805 92 105 0.0 0.0 0.00 0.00 0.00 28 1014.2
20260904113305 92 143 0.0 0.0 0.00 0.00 0.00 28 1014.2
20260904112306 92 17 0.0 0.0 0.00 0.00 0.00 29 1014.1
20260904111305 92 146 0.0 0.0 0.00 0.00 0.00 29 1014.1
20260904110804 91 83 0.0 0.0 0.00 0.00 0.00 31 1014.1
20260904110305 91 90 0.0 0.0 0.00 0.00 0.00 31 1014.2
20260904105804 90 352 0.0 0.0 0.00 0.00 0.00 32 1014.2
20260904104805 90 9 0.0 0.0 0.00 0.00 0.00 33 1014.4
20260904104305 91 84 0.0 0.0 0.00 0.00 0.00 34 1014.3
20260904103805 90 64 0.0 0.0 0.00 0.00 0.00 34 1014.3
20260904103305 90 324 0.0 0.0 0.00 0.00 0.00 34 1014.3
20260904102805 89 72 0.0 0.0 0.00 0.00 0.00 33 1014.4
20260904102306 89 180 0.0 0.0 0.00 0.00 0.00 34 1014.5
20260904101805 89 23 0.0 0.0 0.00 0.00 0.00 34 1014.5
20260904100305 88 41 0.0 0.0 0.00 0.00 0.00 34 1014.5
20260904095804 88 26 0.0 0.0 0.00 0.00 0.00 35 1014.6
20260904095306 89 194 0.0 0.0 0.00 0.00 0.00 36 1014.7
20260904094804 89 103 0.0 0.0 0.00 0.00 0.00 36 1014.6
20260904094305 89 47 0.0 0.0 0.00 0.00 0.00 36 1014.7
20260904093804 88 46 0.0 0.0 0.00 0.00 0.00 37 1014.7
20260904093304 88 5 0.0 0.0 0.00 0.00 0.00 36 1014.8
20260904092805 88 18 0.0 0.0 0.00 0.00 0.00 37 1014.8
20260904092306 88 106 0.0 0.0 0.00 0.00 0.00 37 1014.8
20260904091805 88 157 0.0 0.0 0.00 0.00 0.00 37 1014.7
20260904091305 88 116 0.0 0.0 0.00 0.00 0.00 37 1014.6
20260904090805 88 19 0.0 0.0 0.00 0.00 0.00 38 1014.7
20260904090304 87 211 0.0 0.0 0.00 0.00 0.00 40 1014.7
20260904085805 87 206 0.0 0.0 0.00 0.00 0.00 40 1014.7
20260904085306 87 95 0.0 0.0 0.00 0.00 0.00 40 1014.7
20260904084804 86 217 0.0 0.0 0.00 0.00 0.00 42 1014.7
20260904083804 85 14 0.0 0.0 0.00 0.00 0.00 42 1014.6
20260904082306 84 228 0.0 0.0 0.00 0.00 0.00 44 1014.5
20260904081804 83 114 0.0 0.0 0.00 0.00 0.00 45 1014.5
20260904081305 83 305 0.0 0.0 0.00 0.00 0.00 46 1014.6
20260904075805 84 49 0.0 0.0 0.00 0.00 0.00 46 1014.5
20260904075306 84 105 0.0 0.0 0.00 0.00 0.00 46 1014.5
20260904074305 83 57 0.0 0.0 0.00 0.00 0.00 47 1014.4
20260904073804 83 82 0.0 0.0 0.00 0.00 0.00 46 1014.4
20260904072806 82 83 0.0 0.0 0.00 0.00 0.00 47 1014.3
20260904072306 82 27 0.0 0.0 0.00 0.00 0.00 48 1014.3
20260904070306 81 175 0.0 0.0 0.00 0.00 0.00 49 1014.2
20260904065306 80 76 0.0 0.0 0.00 0.00 0.00 49 1014.1
20260904064804 80 55 0.0 0.0 0.00 0.00 0.00 50 1014.1
20260904064304 79 43 0.0 0.0 0.00 0.00 0.00 51 1014.0
20260904063805 79 33 0.0 0.0 0.00 0.00 0.00 51 1014.0
20260904062805 79 133 0.0 0.0 0.00 0.00 0.00 53 1014.1
20260904061805 78 38 0.0 0.0 0.00 0.00 0.00 59 1013.9
20260904061304 77 248 0.0 0.0 0.00 0.00 0.00 62 1013.9
20260904060804 76 110 0.0 0.0 0.00 0.00 0.00 65 1013.9
20260904055804 75 17 0.0 0.0 0.00 0.00 0.00 66 1013.9
20260904055306 74 28 0.0 0.0 0.00 0.00 0.00 67 1013.8
20260904054804 73 163 0.0 0.0 0.00 0.00 0.00 69 1013.9
20260904054304 73 133 0.0 0.0 0.00 0.00 0.00 69 1013.9
20260904053804 72 137 0.0 0.0 0.00 0.00 0.00 68 1013.9
20260904052804 72 355 0.0 0.0 0.00 0.00 0.00 67 1013.7
20260904052307 72 28 0.0 0.0 0.00 0.00 0.00 66 1013.7
20260904051804 73 28 0.0 0.0 0.00 0.00 0.00 64 1013.7
20260904051304 73 49 0.0 0.0 0.00 0.00 0.00 63 1013.7
20260904050805 73 49 0.0 0.0 0.00 0.00 0.00 63 1013.6
20260904050305 73 51 0.0 0.0 0.00 0.00 0.00 63 1013.6
20260904045807 73 29 0.0 0.0 0.00 0.00 0.00 63 1013.4
20260904044805 73 54 0.0 0.0 0.00 0.00 0.00 62 1013.3
20260904044304 73 57 0.0 0.0 0.00 0.00 0.00 61 1013.3
20260904043804 73 11 0.0 0.0 0.00 0.00 0.00 61 1013.2
20260904043304 73 10 0.0 0.0 0.00 0.00 0.00 61 1013.1
20260904042804 73 111 0.0 0.0 0.00 0.00 0.00 60 1013.1
20260904041804 73 55 0.0 0.0 0.00 0.00 0.00 59 1013.1
20260904041304 73 181 0.0 0.0 0.00 0.00 0.00 59 1013.1
20260904040804 73 36 0.0 0.0 0.00 0.00 0.00 59 1013.0
20260904034804 73 0 0.0 0.0 0.00 0.00 0.00 61 1013.0
20260904034304 73 87 0.0 0.0 0.00 0.00 0.00 62 1013.0
20260904033804 73 168 0.0 0.0 0.00 0.00 0.00 63 1013.0
20260904033304 72 186 0.0 0.0 0.00 0.00 0.00 63 1012.9
20260904032805 72 112 0.0 0.0 0.00 0.00 0.00 63 1013.0
20260904032306 72 70 0.0 0.0 0.00 0.00 0.00 63 1013.0
20260904031804 72 101 0.0 0.0 0.00 0.00 0.00 63 1013.0
20260904031304 72 68 0.0 0.0 0.00 0.00 0.00 64 1013.0
20260904030804 72 132 0.0 0.0 0.00 0.00 0.00 63 1013.0
20260904030304 73 53 0.0 0.0 0.00 0.00 0.00 63 1013.0
20260904025804 73 53 0.0 0.0 0.00 0.00 0.00 62 1013.1
20260904024804 73 52 0.0 0.0 0.00 0.00 0.00 62 1013.2
20260904023804 73 41 0.0 0.0 0.00 0.00 0.00 62 1013.2
20260904022804 73 12 0.0 0.0 0.00 0.00 0.00 60 1013.1
20260904022306 73 176 0.0 0.0 0.00 0.00 0.00 61 1013.1
20260904021804 73 42 0.0 0.0 0.00 0.00 0.00 61 1013.1
20260904021304 73 98 0.0 0.0 0.00 0.00 0.00 62 1013.0
20260904020804 73 34 0.0 0.0 0.00 0.00 0.00 63 1013.0
20260904020304 73 36 0.0 0.0 0.00 0.00 0.00 63 1013.0
20260904015306 73 59 0.0 0.0 0.00 0.00 0.00 65 1012.9
20260904014804 73 109 0.0 0.0 0.00 0.00 0.00 66 1012.8
20260904014304 72 72 0.0 0.0 0.00 0.00 0.00 68 1012.8
20260904013804 72 47 0.0 0.0 0.00 0.00 0.00 71 1012.9
20260904012803 72 35 0.0 0.0 0.00 0.00 0.00 72 1013.0
20260904012306 72 14 0.0 0.0 0.00 0.00 0.00 72 1013.0
20260904011804 72 45 0.0 0.0 0.00 0.00 0.00 74 1013.1
20260904011304 72 74 0.0 0.0 0.00 0.00 0.00 74 1013.1
20260904010804 72 83 0.0 0.0 0.00 0.00 0.00 74 1013.1
20260904010303 72 41 0.0 0.0 0.00 0.00 0.00 74 1013.1
20260904005804 72 103 0.0 0.0 0.00 0.00 0.00 73 1013.1
20260904005306 72 42 0.0 0.0 0.00 0.00 0.00 73 1013.1
20260904004806 72 66 0.0 0.0 0.00 0.00 0.00 73 1013.0
20260904004306 73 65 0.0 0.0 0.00 0.00 0.00 73 1013.1
20260904003807 73 215 0.0 0.0 0.00 0.00 0.00 73 1013.1
20260904002306 73 78 0.0 0.0 0.00 0.00 0.00 72 1013.3
20260904001807 73 132 0.0 0.0 0.00 0.00 0.00 72 1013.3
20260904001306 73 38 0.0 0.0 0.00 0.00 0.00 73 1013.3
20260904000806 73 185 0.0 0.0 0.00 0.00 0.00 74 1013.3
20260903234807 73 93 0.0 0.0 0.00 0.00 0.00 76 1013.4
20260903234306 73 76 0.0 0.0 0.00 0.00 0.00 76 1013.5
20260903233806 73 59 0.0 0.0 0.00 0.00 0.00 76 1013.4
20260903233306 73 70 0.0 0.0 0.00 0.00 0.00 75 1013.5
20260903232806 73 25 0.0 0.0 0.00 0.00 0.00 74 1013.5
20260903232306 73 56 0.0 0.0 0.00 0.00 0.00 72 1013.5
20260903231806 73 38 0.0 0.0 0.00 0.00 0.00 71 1013.4
20260903231306 74 13 0.0 0.0 0.00 0.00 0.00 70 1013.4
20260903230806 74 47 0.0 0.0 0.00 0.00 0.00 69 1013.4
20260903230306 74 19 0.0 0.0 0.00 0.00 0.00 70 1013.4
20260903225806 74 34 0.0 0.0 0.00 0.00 0.00 71 1013.4
20260903225307 74 13 0.0 0.0 0.00 0.00 0.00 70 1013.4
20260903224306 74 8 0.0 0.0 0.00 0.00 0.00 69 1013.5
20260903223806 74 38 0.0 0.0 0.00 0.00 0.00 70 1013.4
20260903223307 74 10 0.0 0.0 0.00 0.00 0.00 70 1013.4
20260903222806 74 24 0.0 0.0 0.00 0.00 0.00 70 1013.4
20260903222306 74 45 0.0 0.0 0.00 0.00 0.00 69 1013.4
20260903221805 74 47 0.0 0.0 0.00 0.00 0.00 69 1013.5
20260903220826 74 347 0.0 0.0 0.00 0.00 0.00 70 1013.4
20260903220306 74 30 0.0 0.0 0.00 0.00 0.00 71 1013.4
20260903215806 75 46 0.0 0.0 0.00 0.00 0.00 71 1013.3
20260903215306 75 28 0.0 0.0 0.00 0.00 0.00 71 1013.3
20260903214806 75 180 0.0 0.0 0.00 0.00 0.00 71 1013.3
20260903214306 75 219 0.0 0.0 0.00 0.00 0.00 71 1013.3
20260903213806 75 114 0.0 0.0 0.00 0.00 0.00 71 1013.3
20260903213305 75 206 0.0 0.0 0.00 0.00 0.00 71 1013.4
20260903212806 75 187 0.0 0.0 0.00 0.00 0.00 70 1013.4
20260903212307 75 51 0.0 0.0 0.00 0.00 0.00 70 1013.4
20260903211306 75 176 0.0 0.0 0.00 0.00 0.00 71 1013.3
20260903210305 75 7 0.0 0.0 0.00 0.00 0.00 71 1013.4
20260903205806 76 11 0.0 0.0 0.00 0.00 0.00 70 1013.5
20260903205306 76 11 0.0 0.0 0.00 0.00 0.00 69 1013.5
20260903204806 76 29 0.0 0.0 0.00 0.00 0.00 69 1013.5
20260903204305 76 20 0.0 0.0 0.00 0.00 0.00 70 1013.5
20260903203805 76 40 0.0 0.0 0.00 0.00 0.00 69 1013.5
20260903203306 76 39 0.0 0.0 0.00 0.00 0.00 69 1013.5
20260903202805 76 25 0.0 0.0 0.00 0.00 0.00 68 1013.5
20260903202306 76 23 0.0 0.0 0.00 0.00 0.00 68 1013.5
20260903201805 76 32 0.0 0.0 0.00 0.00 0.00 68 1013.5
20260903201306 76 107 0.0 0.0 0.00 0.00 0.00 67 1013.5
20260903200807 76 359 0.0 0.0 0.00 0.00 0.00 67 1013.5
20260903200306 76 57 0.0 0.0 0.00 0.00 0.00 67 1013.6
20260903195806 76 30 0.0 0.0 0.00 0.00 0.00 66 1013.6
20260903195307 76 110 0.0 0.0 0.00 0.00 0.00 66 1013.7
20260903194806 76 5 0.0 0.0 0.00 0.00 0.00 66 1013.6
20260903194306 77 0 0.0 0.0 0.00 0.00 0.00 65 1013.5
20260903193806 77 15 0.0 0.0 0.00 0.00 0.00 65 1013.4
20260903193306 77 12 0.0 0.0 0.00 0.00 0.00 64 1013.4
20260903192806 77 99 0.0 0.0 0.00 0.00 0.00 64 1013.3
20260903192306 77 71 0.0 0.0 0.00 0.00 0.00 64 1013.3
20260903191306 77 62 0.0 0.0 0.00 0.00 0.00 63 1013.0
20260903190805 77 38 0.0 0.0 0.00 0.00 0.00 63 1013.0
20260903190306 77 4 0.0 0.0 0.00 0.00 0.00 63 1012.9
20260903185805 77 192 0.0 0.0 0.00 0.00 0.00 65 1012.9
20260903184806 78 123 0.0 0.0 0.00 0.00 0.00 63 1012.7
20260903184306 78 25 0.0 0.0 0.00 0.00 0.00 63 1012.6
20260903183806 78 49 0.0 0.0 0.00 0.00 0.00 62 1012.5
20260903183305 78 131 0.0 0.0 0.00 0.00 0.00 61 1012.4
20260903182806 78 56 0.0 0.0 0.00 0.00 0.00 60 1012.3
20260903181805 79 62 0.0 0.0 0.00 0.00 0.00 57 1012.1
20260903181306 79 12 0.0 0.0 0.00 0.00 0.00 55 1012.1
20260903180806 80 83 0.0 0.0 0.00 0.00 0.00 52 1012.0
20260903180305 80 125 0.0 0.0 0.00 0.00 0.00 50 1012.0
20260903175806 80 49 0.0 0.0 0.00 0.00 0.00 49 1011.9
20260903175306 80 135 0.0 0.0 0.00 0.00 0.00 49 1011.8
20260903174806 81 54 0.0 0.0 0.00 0.00 0.00 48 1011.8
20260903173806 82 134 0.0 0.0 0.00 0.00 0.00 45 1011.6
20260903172806 82 221 0.0 0.0 0.00 0.00 0.00 45 1011.5
20260903171805 82 18 0.0 0.0 0.00 0.00 0.00 45 1011.5
20260903170805 83 77 0.0 0.0 0.00 0.00 0.00 45 1011.3
20260903170306 83 52 0.0 0.0 0.00 0.00 0.00 45 1011.3
20260903165805 83 0 0.0 0.0 0.00 0.00 0.00 45 1011.3
20260903165306 84 160 0.0 0.0 0.00 0.00 0.00 45 1011.2
20260903164806 84 22 0.0 0.0 0.00 0.00 0.00 45 1011.3
20260903164306 85 87 0.0 0.0 0.00 0.00 0.00 43 1011.2
20260903163807 85 37 0.0 0.0 0.00 0.00 0.00 43 1011.2
20260903163306 85 19 0.0 0.0 0.00 0.00 0.00 42 1011.2
20260903162806 86 39 0.0 0.0 0.00 0.00 0.00 41 1011.2
20260903162306 86 145 0.0 0.0 0.00 0.00 0.00 41 1011.1
20260903161806 87 72 0.0 0.0 0.00 0.00 0.00 42 1011.1
20260903161305 87 44 0.0 0.0 0.00 0.00 0.00 42 1010.9
20260903160806 87 58 0.0 0.0 0.00 0.00 0.00 45 1010.9
20260903160306 87 70 0.0 0.0 0.00 0.00 0.00 46 1010.8
20260903155306 89 65 0.0 0.0 0.00 0.00 0.00 42 1010.7
20260903154305 90 44 0.0 0.0 0.00 0.00 0.00 42 1010.7
20260903153806 90 57 0.0 0.0 0.00 0.00 0.00 40 1010.7
20260903152307 92 45 0.0 0.0 0.00 0.00 0.00 36 1010.6
20260903151805 93 236 0.0 0.0 0.00 0.00 0.00 35 1010.6
20260903151305 92 153 0.0 0.0 0.00 0.00 0.00 35 1010.6
20260903150807 92 7 0.0 0.0 0.00 0.00 0.00 34 1010.6
20260903150305 92 62 0.0 0.0 0.00 0.00 0.00 32 1010.6
20260903145805 93 49 0.0 0.0 0.00 0.00 0.00 33 1010.6
20260903145306 92 157 0.0 0.0 0.00 0.00 0.00 33 1010.7
20260903144806 92 4 0.0 0.0 0.00 0.00 0.00 33 1010.7
20260903144305 93 143 0.0 0.0 0.00 0.00 0.00 33 1010.7
20260903143805 93 157 0.0 0.0 0.00 0.00 0.00 32 1010.8
20260903143305 92 58 0.0 0.0 0.00 0.00 0.00 33 1010.7
20260903142805 93 42 0.0 0.0 0.00 0.00 0.00 32 1010.7
20260903142306 93 206 0.0 0.0 0.00 0.00 0.00 32 1010.7